| time (UTC) | temp C | wind direction | speed KPH | gust KPH | rain 1hr cm | rain 24hr cm | rain mn cm | humidity % | barometer mb |
| 20260506182536 | 12 | 0.0 | 1.6 | 0.03 | 0.25 | 0.25 | 90 | 1004.8 | |
| 20260506181517 | 12 | 0.0 | 3.2 | 0.05 | 0.25 | 0.25 | 90 | 1004.5 | |
| 20260506180519 | 12 | 0.0 | 0.0 | 0.10 | 0.25 | 0.25 | 89 | 1004.6 | |
| 20260506175539 | 12 | 0.0 | 0.0 | 0.18 | 0.25 | 0.25 | 89 | 1004.4 | |
| 20260506174536 | 12 | 0.0 | 0.0 | 0.23 | 0.25 | 0.25 | 88 | 1004.5 | |
| 20260506173516 | 12 | 0.0 | 0.0 | 0.23 | 0.25 | 0.25 | 88 | 1004.6 | |
| 20260506172516 | 13 | 0.0 | 0.0 | 0.23 | 0.53 | 0.23 | 87 | 1004.7 | |
| 20260506171516 | 13 | 0.0 | 1.6 | 0.18 | 0.79 | 0.20 | 87 | 1004.5 | |
| 20260506170516 | 13 | 270 | 3.2 | 11.3 | 0.15 | 1.04 | 0.15 | 85 | 1004.7 |
| 20260506165639 | 14 | 270 | 8.0 | 17.7 | 0.05 | 0.99 | 0.05 | 83 | 1004.7 |
| 20260506164516 | 15 | 293 | 4.8 | 12.9 | 0.00 | 0.94 | 0.03 | 79 | 1004.4 |
| 20260506163516 | 16 | 315 | 6.4 | 14.5 | 0.00 | 0.94 | 0.03 | 74 | 1004.2 |
| 20260506162516 | 16 | 0.0 | 6.4 | 0.00 | 0.94 | 0.03 | 72 | 1004.2 | |
| 20260506161516 | 16 | 315 | 1.6 | 8.0 | 0.00 | 0.94 | 0.03 | 71 | 1004.2 |
| 20260506160516 | 17 | 293 | 1.6 | 8.0 | 0.00 | 0.94 | 0.03 | 70 | 1004.4 |
| 20260506155516 | 17 | 0.0 | 3.2 | 0.00 | 0.94 | 0.03 | 69 | 1004.4 | |
| 20260506154516 | 17 | 0.0 | 3.2 | 0.00 | 0.94 | 0.03 | 70 | 1004.5 | |
| 20260506153516 | 17 | 0.0 | 0.0 | 0.00 | 0.94 | 0.03 | 66 | 1004.5 | |
| 20260506152516 | 18 | 0.0 | 3.2 | 0.00 | 0.94 | 0.03 | 66 | 1004.7 | |
| 20260506151516 | 18 | 0.0 | 0.0 | 0.00 | 0.94 | 0.03 | 68 | 1004.5 | |
| 20260506150516 | 18 | 0.0 | 0.0 | 0.00 | 0.94 | 0.03 | 65 | 1004.5 | |
| 20260506145515 | 18 | 270 | 1.6 | 6.4 | 0.00 | 0.94 | 0.03 | 66 | 1004.7 |
| 20260506144516 | 18 | 0.0 | 0.0 | 0.00 | 0.94 | 0.03 | 68 | 1004.7 | |
| 20260506143515 | 18 | 0.0 | 1.6 | 0.00 | 0.94 | 0.03 | 66 | 1004.7 | |
| 20260506142516 | 18 | 0.0 | 3.2 | 0.00 | 0.94 | 0.03 | 65 | 1004.8 | |
| 20260506141516 | 18 | 135 | 1.6 | 8.0 | 0.00 | 0.94 | 0.03 | 66 | 1004.8 |
| 20260506140515 | 18 | 158 | 1.6 | 6.4 | 0.00 | 0.94 | 0.03 | 66 | 1004.7 |
| 20260506135515 | 18 | 225 | 3.2 | 6.4 | 0.00 | 0.94 | 0.03 | 65 | 1004.9 |
| 20260506134515 | 17 | 0.0 | 0.0 | 0.00 | 0.94 | 0.03 | 68 | 1004.9 | |
| 20260506133536 | 17 | 0.0 | 1.6 | 0.00 | 0.94 | 0.03 | 67 | 1005.0 | |
| 20260506132518 | 17 | 0.0 | 1.6 | 0.00 | 0.94 | 0.03 | 70 | 1005.1 | |
| 20260506131518 | 17 | 0.0 | 1.6 | 0.00 | 0.94 | 0.03 | 71 | 1005.3 | |
| 20260506130517 | 16 | 0.0 | 4.8 | 0.00 | 0.94 | 0.03 | 70 | 1005.2 | |
| 20260506125537 | 16 | 135 | 1.6 | 4.8 | 0.00 | 0.94 | 0.03 | 71 | 1005.2 |
| 20260506124558 | 16 | 135 | 1.6 | 4.8 | 0.00 | 0.94 | 0.03 | 68 | 1005.4 |
| 20260506123517 | 17 | 0.0 | 3.2 | 0.00 | 0.94 | 0.03 | 69 | 1005.4 | |
| 20260506122517 | 17 | 0.0 | 4.8 | 0.00 | 0.94 | 0.03 | 70 | 1005.5 | |
| 20260506121517 | 17 | 158 | 1.6 | 4.8 | 0.00 | 0.94 | 0.03 | 68 | 1005.4 |
| 20260506120517 | 17 | 180 | 1.6 | 9.7 | 0.00 | 0.94 | 0.03 | 68 | 1005.4 |
| 20260506115558 | 17 | 158 | 4.8 | 11.3 | 0.00 | 0.94 | 0.03 | 69 | 1005.5 |
| 20260506114517 | 17 | 158 | 1.6 | 6.4 | 0.00 | 0.94 | 0.03 | 69 | 1005.5 |
| 20260506113517 | 17 | 225 | 4.8 | 9.7 | 0.00 | 0.94 | 0.03 | 67 | 1005.7 |
| 20260506112517 | 17 | 248 | 4.8 | 14.5 | 0.00 | 0.94 | 0.03 | 67 | 1005.8 |
| 20260506111517 | 17 | 180 | 6.4 | 12.9 | 0.00 | 0.94 | 0.03 | 65 | 1005.9 |
| 20260506110537 | 17 | 225 | 6.4 | 11.3 | 0.00 | 0.94 | 0.03 | 71 | 1005.9 |
| 20260506105517 | 16 | 248 | 3.2 | 6.4 | 0.00 | 0.94 | 0.03 | 76 | 1005.9 |
| 20260506104517 | 16 | 180 | 3.2 | 8.0 | 0.00 | 0.94 | 0.03 | 78 | 1006.0 |
| 20260506103537 | 15 | 225 | 4.8 | 9.7 | 0.00 | 0.94 | 0.03 | 78 | 1005.8 |
| 20260506102517 | 15 | 158 | 8.0 | 12.9 | 0.00 | 0.94 | 0.03 | 80 | 1006.0 |
| 20260506101517 | 15 | 158 | 6.4 | 11.3 | 0.00 | 0.94 | 0.03 | 80 | 1006.0 |
| 20260506100517 | 15 | 158 | 6.4 | 14.5 | 0.00 | 0.94 | 0.03 | 80 | 1005.8 |
| 20260506095518 | 15 | 158 | 8.0 | 14.5 | 0.00 | 0.94 | 0.03 | 80 | 1005.8 |
| 20260506094517 | 15 | 158 | 6.4 | 11.3 | 0.00 | 0.94 | 0.03 | 80 | 1005.8 |
| 20260506093517 | 15 | 158 | 6.4 | 9.7 | 0.00 | 0.94 | 0.03 | 80 | 1005.8 |
| 20260506092517 | 15 | 158 | 6.4 | 14.5 | 0.00 | 0.94 | 0.03 | 79 | 1005.7 |
| 20260506091517 | 16 | 180 | 6.4 | 11.3 | 0.00 | 0.94 | 0.03 | 80 | 1005.7 |
| 20260506090517 | 15 | 158 | 6.4 | 12.9 | 0.00 | 0.94 | 0.03 | 83 | 1005.6 |
| 20260506085517 | 15 | 158 | 6.4 | 14.5 | 0.00 | 0.94 | 0.03 | 85 | 1006.0 |
| 20260506084517 | 15 | 180 | 8.0 | 14.5 | 0.00 | 0.94 | 0.03 | 88 | 1006.0 |
| 20260506083517 | 14 | 158 | 6.4 | 12.9 | 0.00 | 0.94 | 0.03 | 92 | 1005.9 |
| 20260506082537 | 13 | 135 | 3.2 | 9.7 | 0.00 | 0.94 | 0.03 | 92 | 1005.6 |
| 20260506081517 | 12 | 158 | 4.8 | 9.7 | 0.00 | 0.94 | 0.03 | 92 | 1005.7 |
| 20260506080517 | 12 | 158 | 4.8 | 12.9 | 0.00 | 0.94 | 0.03 | 93 | 1005.5 |
| 20260506073517 | 12 | 158 | 4.8 | 9.7 | 0.00 | 0.94 | 0.03 | 94 | 1005.5 |
| 20260506072517 | 12 | 158 | 6.4 | 12.9 | 0.00 | 0.94 | 0.03 | 95 | 1005.6 |
| 20260506071517 | 12 | 158 | 6.4 | 12.9 | 0.00 | 0.94 | 0.03 | 95 | 1005.5 |
| 20260506070517 | 12 | 248 | 4.8 | 8.0 | 0.00 | 0.94 | 0.03 | 95 | 1005.3 |
| 20260506062517 | 12 | 203 | 1.6 | 6.4 | 0.00 | 0.94 | 0.03 | 96 | 1005.4 |
| 20260506061516 | 11 | 293 | 1.6 | 6.4 | 0.00 | 0.94 | 0.03 | 96 | 1005.3 |
| 20260506060517 | 11 | 0.0 | 4.8 | 0.00 | 0.94 | 0.03 | 96 | 1005.4 | |
| 20260506050516 | 11 | 203 | 4.8 | 9.7 | 0.00 | 0.94 | 0.03 | 96 | 1006.0 |
| 20260506044516 | 11 | 203 | 4.8 | 11.3 | 0.00 | 0.94 | 0.03 | 96 | 1006.0 |
| 20260506043516 | 11 | 158 | 4.8 | 8.0 | 0.00 | 0.94 | 0.03 | 96 | 1006.1 |
| 20260506042516 | 11 | 203 | 4.8 | 9.7 | 0.00 | 0.94 | 0.03 | 96 | 1006.0 |
| 20260506041516 | 10 | 158 | 6.4 | 8.0 | 0.00 | 0.94 | 0.03 | 95 | 1005.9 |
| 20260506040516 | 10 | 158 | 6.4 | 9.7 | 0.00 | 0.94 | 0.03 | 96 | 1005.9 |
| 20260506035516 | 10 | 158 | 6.4 | 9.7 | 0.00 | 0.94 | 0.03 | 95 | 1005.7 |
| 20260506034516 | 10 | 158 | 4.8 | 9.7 | 0.00 | 0.94 | 0.03 | 95 | 1005.8 |
| 20260506033516 | 10 | 158 | 4.8 | 8.0 | 0.00 | 0.94 | 0.03 | 95 | 1005.8 |
| 20260506032516 | 10 | 158 | 6.4 | 9.7 | 0.00 | 0.94 | 0.03 | 95 | 1005.9 |
| 20260506031516 | 10 | 180 | 4.8 | 8.0 | 0.00 | 0.94 | 0.03 | 95 | 1005.9 |
| 20260506030516 | 10 | 180 | 4.8 | 9.7 | 0.00 | 0.94 | 0.03 | 95 | 1006.1 |
| 20260506025516 | 10 | 158 | 8.0 | 12.9 | 0.00 | 0.94 | 0.03 | 95 | 1006.1 |
| 20260506024516 | 10 | 158 | 6.4 | 11.3 | 0.00 | 0.94 | 0.03 | 95 | 1006.2 |
| 20260506023516 | 10 | 158 | 4.8 | 9.7 | 0.00 | 0.94 | 0.03 | 95 | 1006.1 |
| 20260506022516 | 10 | 158 | 6.4 | 9.7 | 0.00 | 0.94 | 0.03 | 95 | 1006.1 |
| 20260506021516 | 10 | 158 | 8.0 | 12.9 | 0.00 | 0.94 | 0.03 | 95 | 1006.0 |
| 20260506020516 | 10 | 158 | 6.4 | 9.7 | 0.00 | 0.94 | 0.03 | 95 | 1006.1 |
| 20260506015516 | 10 | 158 | 4.8 | 8.0 | 0.00 | 0.94 | 0.03 | 95 | 1006.2 |
| 20260506014536 | 10 | 158 | 4.8 | 8.0 | 0.00 | 0.94 | 0.03 | 95 | 1006.2 |
| 20260506013516 | 10 | 158 | 8.0 | 11.3 | 0.00 | 0.94 | 0.03 | 95 | 1006.2 |
| 20260506012516 | 10 | 158 | 6.4 | 9.7 | 0.00 | 0.94 | 0.03 | 95 | 1006.4 |
| 20260506011536 | 10 | 158 | 4.8 | 9.7 | 0.00 | 0.94 | 0.03 | 95 | 1006.3 |
| 20260506010536 | 10 | 158 | 6.4 | 11.3 | 0.00 | 0.94 | 0.03 | 95 | 1006.2 |
| 20260506005516 | 11 | 180 | 4.8 | 11.3 | 0.00 | 0.94 | 0.03 | 95 | 1006.4 |
| 20260506004536 | 11 | 158 | 4.8 | 9.7 | 0.00 | 0.94 | 0.03 | 95 | 1006.4 |
| 20260506003516 | 11 | 180 | 4.8 | 11.3 | 0.00 | 0.94 | 0.03 | 95 | 1006.5 |
| 20260506002516 | 11 | 180 | 3.2 | 12.9 | 0.00 | 0.94 | 0.03 | 95 | 1006.6 |
| 20260506001516 | 11 | 180 | 4.8 | 8.0 | 0.00 | 0.94 | 0.03 | 95 | 1006.8 |
| 20260506000517 | 11 | 158 | 6.4 | 9.7 | 0.03 | 0.94 | 0.03 | 95 | 1006.8 |
| 20260505235516 | 11 | 158 | 3.2 | 8.0 | 0.03 | 0.94 | 0.03 | 94 | 1007.0 |
| 20260505234516 | 11 | 158 | 4.8 | 9.7 | 0.03 | 0.94 | 0.03 | 94 | 1007.0 |
| 20260505233516 | 11 | 158 | 4.8 | 8.0 | 0.03 | 0.94 | 0.03 | 95 | 1007.1 |
| 20260505232515 | 11 | 203 | 6.4 | 9.7 | 0.03 | 0.94 | 0.03 | 94 | 1007.1 |
| 20260505231515 | 11 | 180 | 4.8 | 9.7 | 0.03 | 0.94 | 0.03 | 95 | 1007.1 |
| 20260505230515 | 11 | 180 | 3.2 | 6.4 | 0.00 | 0.91 | 0.00 | 94 | 1006.9 |
| 20260505225521 | 11 | 180 | 4.8 | 8.0 | 0.00 | 0.91 | 0.00 | 94 | 1006.8 |
| 20260505224515 | 11 | 158 | 6.4 | 9.7 | 0.00 | 0.91 | 0.00 | 94 | 1006.8 |
| 20260505223516 | 11 | 158 | 4.8 | 8.0 | 0.00 | 0.91 | 0.00 | 94 | 1006.8 |
| 20260505222515 | 11 | 158 | 4.8 | 9.7 | 0.00 | 0.91 | 0.00 | 94 | 1006.9 |
| 20260505221517 | 11 | 158 | 3.2 | 8.0 | 0.00 | 0.91 | 0.00 | 94 | 1007.0 |
| 20260505220517 | 11 | 203 | 3.2 | 4.8 | 0.00 | 0.91 | 0.00 | 94 | 1006.9 |
| 20260505215517 | 11 | 225 | 3.2 | 6.4 | 0.00 | 0.91 | 0.91 | 94 | 1006.7 |
| 20260505214517 | 11 | 0.0 | 3.2 | 0.00 | 0.91 | 0.91 | 94 | 1006.6 | |
| 20260505213557 | 11 | 225 | 3.2 | 4.8 | 0.00 | 0.91 | 0.91 | 94 | 1006.9 |
| 20260505212516 | 11 | 225 | 3.2 | 4.8 | 0.00 | 0.91 | 0.91 | 94 | 1007.0 |
| 20260505211516 | 11 | 0.0 | 3.2 | 0.00 | 0.91 | 0.91 | 94 | 1006.8 | |
| 20260505210517 | 11 | 0.0 | 1.6 | 0.00 | 0.91 | 0.91 | 94 | 1006.9 | |
| 20260505205516 | 11 | 0.0 | 3.2 | 0.00 | 0.91 | 0.91 | 93 | 1006.8 | |
| 20260505204516 | 11 | 0.0 | 3.2 | 0.00 | 0.91 | 0.91 | 93 | 1006.9 | |
| 20260505203516 | 11 | 0.0 | 0.0 | 0.00 | 0.91 | 0.91 | 93 | 1006.6 | |
| 20260505202516 | 11 | 0.0 | 3.2 | 0.00 | 0.91 | 0.91 | 93 | 1006.6 | |
| 20260505201539 | 11 | 225 | 1.6 | 3.2 | 0.00 | 0.91 | 0.91 | 93 | 1006.3 |
| 20260505200536 | 11 | 225 | 3.2 | 4.8 | 0.00 | 0.91 | 0.91 | 93 | 1006.1 |
| 20260505195516 | 12 | 225 | 3.2 | 6.4 | 0.00 | 0.91 | 0.91 | 93 | 1005.9 |
| 20260505194536 | 12 | 203 | 1.6 | 4.8 | 0.00 | 0.91 | 0.91 | 93 | 1005.7 |
| 20260505193516 | 12 | 0.0 | 0.0 | 0.00 | 0.91 | 0.91 | 93 | 1005.5 | |
| 20260505192516 | 12 | 0.0 | 4.8 | 0.00 | 0.91 | 0.91 | 93 | 1005.4 | |
| 20260505191516 | 12 | 0.0 | 3.2 | 0.00 | 0.91 | 0.91 | 93 | 1005.4 | |
| 20260505190516 | 12 | 293 | 1.6 | 8.0 | 0.00 | 0.91 | 0.91 | 93 | 1005.5 |
| 20260505185516 | 12 | 315 | 3.2 | 8.0 | 0.00 | 0.91 | 0.91 | 92 | 1005.3 |
| 20260505184516 | 12 | 338 | 1.6 | 11.3 | 0.00 | 0.91 | 0.91 | 92 | 1005.3 |
| 20260505183516 | 12 | 0.0 | 1.6 | 0.00 | 0.91 | 0.91 | 92 | 1005.3 |